Location: North Evanston
(42.0634°N, 87.6976°W)
Time: 05:38:56
(UTC+00:00)

Explorer 11/Cluster Stage 4 - Pass Details

Date: 19 May 2026
Orbit: 463 x 1173 km, 28.8° (Epoch: 7 June)

Event Time Altitude Azimuth Distance (km) Brightness Sun altitude
Rises 02:56:18 0° 236° (SW) 4,032 10.3 -16.7°
Reaches altitude 10° 02:59:45 10° 224° (SW) 3,038 9.5 -17.1°
Maximum altitude 03:05:40 25° 173° (S) 2,024 8.2 -17.8°
Enters shadow 03:06:27 25° 163° (SSE) 2,028 8.1 -17.9°
